LOG63R EGLC-EGNS

Flight info

Callsign LOG63R
Flight time 1h 2m
Altitude 22000
Route BPK UN601 LESTA UP6 RODOL UL28 AGLIL DCT LUSOD DCT IOM
Aircraft AT76/M-SDFGIRY/S

Departure

Time 2026-04-28 17:45
Airport London City Airport (EGLC)

Arrival

Time 2026-04-28 18:47
Airport Isle of Man Airport (EGNS)
Time Latitude Longitude Altitude Speed Heading
2026-04-28 17:27 51.50439 0.04696 22 ft 0 kts 316°
2026-04-28 17:41 51.50441 0.04693 22 ft 3 kts 316°
2026-04-28 17:41 51.50466 0.04645 22 ft 6 kts 296°
2026-04-28 17:41 51.50476 0.04559 25 ft 9 kts 273°
2026-04-28 17:41 51.50486 0.04467 22 ft 6 kts 305°
2026-04-28 17:42 51.50489 0.04462 22 ft 0 kts 314°
2026-04-28 17:43 51.50532 0.04437 23 ft 10 kts
2026-04-28 17:44 51.50555 0.04465 23 ft 1 kts 83°
2026-04-28 17:44 51.50554 0.04476 22 ft 0 kts 92°
2026-04-28 17:44 51.50554 0.04507 22 ft 20 kts 91°
2026-04-28 17:44 51.50538 0.05094 22 ft 83 kts 91°
2026-04-28 17:45 51.50499 0.06263 129 ft 117 kts 88°
2026-04-28 17:45 51.50467 0.07607 634 ft 123 kts 82°
2026-04-28 17:45 51.50441 0.08960 1240 ft 121 kts 83°
2026-04-28 17:45 51.50584 0.10243 1700 ft 121 kts 50°
2026-04-28 17:46 51.51399 0.10569 2124 ft 138 kts 353°
2026-04-28 17:46 51.52322 0.09674 2097 ft 174 kts 331°
2026-04-28 17:46 51.53282 0.08378 2310 ft 182 kts 326°
2026-04-28 17:46 51.54230 0.07031 2677 ft 182 kts 326°
2026-04-28 17:47 51.55182 0.05650 2898 ft 187 kts 330°
2026-04-28 17:47 51.56329 0.04579 2957 ft 197 kts 340°
2026-04-28 17:47 51.57588 0.03553 2978 ft 208 kts 341°
2026-04-28 17:47 51.58467 0.02871 2986 ft 215 kts 341°
2026-04-28 17:48 51.60311 0.01438 2996 ft 224 kts 341°
2026-04-28 17:48 51.61724 0.00316 2993 ft 229 kts 339°
2026-04-28 17:48 51.63152 -0.00855 3093 ft 232 kts 339°
2026-04-28 17:48 51.64597 -0.02050 3103 ft 234 kts 338°
2026-04-28 17:49 51.66051 -0.03253 3111 ft 236 kts 338°
2026-04-28 17:49 51.67524 -0.04466 3111 ft 238 kts 338°
2026-04-28 17:49 51.68999 -0.05681 3231 ft 236 kts 338°
2026-04-28 17:49 51.70410 -0.06864 3514 ft 228 kts 338°
2026-04-28 17:50 51.71791 -0.08046 3779 ft 222 kts 338°
2026-04-28 17:50 51.73151 -0.09198 4024 ft 219 kts 339°
2026-04-28 17:50 51.74487 -0.10323 4264 ft 217 kts 339°
2026-04-28 17:50 51.75809 -0.11480 4523 ft 215 kts 338°
2026-04-28 17:51 51.77113 -0.12655 4791 ft 215 kts 337°
2026-04-28 17:51 51.78322 -0.13782 5029 ft 215 kts 337°
2026-04-28 17:51 51.79609 -0.15002 5275 ft 215 kts 338°
2026-04-28 17:51 51.80885 -0.16214 5610 ft 211 kts 338°
2026-04-28 17:52 51.82160 -0.17425 5737 ft 213 kts 338°
2026-04-28 17:52 51.83449 -0.18642 5987 ft 215 kts 338°
2026-04-28 17:52 51.86053 -0.21112 6455 ft 219 kts 338°
2026-04-28 17:53 51.87370 -0.22363 6681 ft 221 kts 338°
2026-04-28 17:53 51.88698 -0.23633 6902 ft 222 kts 337°
2026-04-28 17:53 51.90033 -0.24900 7133 ft 223 kts 337°
2026-04-28 17:53 51.91371 -0.26179 7362 ft 224 kts 337°
2026-04-28 17:54 51.92714 -0.27461 7579 ft 225 kts 337°
2026-04-28 17:54 51.94059 -0.28751 7803 ft 225 kts 336°
2026-04-28 17:54 51.95411 -0.30047 8008 ft 226 kts 336°
2026-04-28 17:54 51.96769 -0.31348 8221 ft 227 kts 336°
2026-04-28 17:55 51.98110 -0.32636 8427 ft 227 kts 336°
2026-04-28 17:55 51.99474 -0.33944 8634 ft 228 kts 336°
2026-04-28 17:55 52.00605 -0.35036 8803 ft 229 kts 336°
2026-04-28 17:55 52.01994 -0.36371 9004 ft 229 kts 336°
2026-04-28 17:56 52.03351 -0.37679 9233 ft 230 kts 336°
2026-04-28 17:56 52.04729 -0.39004 9431 ft 230 kts 335°
2026-04-28 17:56 52.06098 -0.40334 9667 ft 229 kts 335°
2026-04-28 17:56 52.07469 -0.41669 9873 ft 230 kts 335°
2026-04-28 17:57 52.08842 -0.43002 10085 ft 230 kts 335°
2026-04-28 17:57 52.10215 -0.44330 10268 ft 230 kts 335°
2026-04-28 17:57 52.11603 -0.45672 10437 ft 231 kts 335°
2026-04-28 17:57 52.12986 -0.47011 10597 ft 232 kts 335°
2026-04-28 17:58 52.14374 -0.48355 10764 ft 233 kts 336°
2026-04-28 17:58 52.15768 -0.49702 10918 ft 234 kts 335°
2026-04-28 17:58 52.17169 -0.51054 11082 ft 234 kts 335°
2026-04-28 17:58 52.18571 -0.52416 11243 ft 235 kts 336°
2026-04-28 17:59 52.19976 -0.53776 11414 ft 235 kts 335°
2026-04-28 17:59 52.21381 -0.55137 11574 ft 236 kts 335°
2026-04-28 17:59 52.22794 -0.56510 11740 ft 236 kts 335°
2026-04-28 17:59 52.24207 -0.57893 11905 ft 237 kts 335°
2026-04-28 18:00 52.25621 -0.59272 12058 ft 237 kts 335°
2026-04-28 18:00 52.27043 -0.60656 12208 ft 238 kts 336°
2026-04-28 18:00 52.28465 -0.62045 12338 ft 238 kts 336°
2026-04-28 18:00 52.29889 -0.63436 12498 ft 238 kts 336°
2026-04-28 18:01 52.31312 -0.64823 12639 ft 239 kts 336°
2026-04-28 18:01 52.32741 -0.66212 12762 ft 240 kts 336°
2026-04-28 18:01 52.34176 -0.67617 12882 ft 240 kts 336°
2026-04-28 18:01 52.35612 -0.69019 13009 ft 241 kts 336°
2026-04-28 18:02 52.37050 -0.70435 13145 ft 241 kts 336°
2026-04-28 18:02 52.38491 -0.71854 13285 ft 242 kts 336°
2026-04-28 18:02 52.39937 -0.73274 13413 ft 242 kts 336°
2026-04-28 18:02 52.41385 -0.74695 13553 ft 243 kts 336°
2026-04-28 18:03 52.42839 -0.76124 13674 ft 244 kts 336°
2026-04-28 18:03 52.44292 -0.77553 13790 ft 244 kts 336°
2026-04-28 18:03 52.45260 -0.78503 13888 ft 245 kts 336°
2026-04-28 18:03 52.46721 -0.79942 14021 ft 245 kts 336°
2026-04-28 18:04 52.48183 -0.81382 14147 ft 246 kts 336°
2026-04-28 18:04 52.49647 -0.82830 14262 ft 246 kts 336°
2026-04-28 18:04 52.51118 -0.84281 14377 ft 246 kts 336°
2026-04-28 18:04 52.52588 -0.85725 14477 ft 246 kts 337°
2026-04-28 18:05 52.54532 -0.87650 14619 ft 246 kts 337°
2026-04-28 18:05 52.55522 -0.88628 14679 ft 246 kts 337°
2026-04-28 18:05 52.56993 -0.90077 14787 ft 247 kts 337°
2026-04-28 18:05 52.58466 -0.91536 14888 ft 247 kts 337°
2026-04-28 18:06 52.59940 -0.92991 14991 ft 247 kts 338°
2026-04-28 18:06 52.61414 -0.94452 15062 ft 248 kts 337°
2026-04-28 18:06 52.62887 -0.95934 15146 ft 248 kts 337°
2026-04-28 18:06 52.64363 -0.97411 15229 ft 248 kts 337°
2026-04-28 18:07 52.65824 -0.98863 15308 ft 249 kts 337°
2026-04-28 18:07 52.67041 -1.00071 15381 ft 249 kts 338°
2026-04-28 18:07 52.68514 -1.01549 15499 ft 247 kts 338°
2026-04-28 18:07 52.69986 -1.03019 15582 ft 248 kts 338°
2026-04-28 18:08 52.71464 -1.04483 15657 ft 248 kts 338°
2026-04-28 18:08 52.72942 -1.05949 15733 ft 248 kts 338°
2026-04-28 18:08 52.74416 -1.07430 15849 ft 250 kts 334°
2026-04-28 18:08 52.75753 -1.09355 15891 ft 258 kts 323°
2026-04-28 18:09 52.77007 -1.11474 15970 ft 257 kts 322°
2026-04-28 18:09 52.78247 -1.13592 16047 ft 256 kts 322°
2026-04-28 18:09 52.79502 -1.15678 16109 ft 256 kts 324°
2026-04-28 18:09 52.80785 -1.17709 16173 ft 255 kts 325°
2026-04-28 18:10 52.82077 -1.19728 16242 ft 256 kts 324°
2026-04-28 18:10 52.83367 -1.21755 16299 ft 256 kts 324°
2026-04-28 18:10 52.84656 -1.23779 16404 ft 254 kts 324°
2026-04-28 18:10 52.85934 -1.25791 16498 ft 254 kts 325°
2026-04-28 18:11 52.87215 -1.27810 16537 ft 255 kts 324°
2026-04-28 18:11 52.88507 -1.29846 16553 ft 257 kts 324°
2026-04-28 18:11 52.89815 -1.31908 16501 ft 262 kts 324°
2026-04-28 18:11 52.91142 -1.34002 16455 ft 266 kts 324°
2026-04-28 18:12 52.92486 -1.36127 16407 ft 268 kts 324°
2026-04-28 18:12 52.93836 -1.38269 16393 ft 269 kts 324°
2026-04-28 18:12 52.95186 -1.40413 16386 ft 270 kts 324°
2026-04-28 18:12 52.96548 -1.42570 16383 ft 270 kts 324°
2026-04-28 18:13 52.97904 -1.44722 16383 ft 270 kts 324°
2026-04-28 18:13 52.99261 -1.46881 16387 ft 270 kts 324°
2026-04-28 18:13 53.00392 -1.48672 16369 ft 270 kts 324°
2026-04-28 18:13 53.01754 -1.50803 16376 ft 269 kts 324°
2026-04-28 18:14 53.03112 -1.52938 16377 ft 269 kts 323°
2026-04-28 18:14 53.04441 -1.55054 16380 ft 268 kts 323°
2026-04-28 18:14 53.05782 -1.57197 16382 ft 267 kts 323°
2026-04-28 18:14 53.07115 -1.59327 16398 ft 266 kts 323°
2026-04-28 18:15 53.08452 -1.61461 16393 ft 266 kts 323°
2026-04-28 18:15 53.09783 -1.63593 16400 ft 266 kts 323°
2026-04-28 18:15 53.11116 -1.65732 16402 ft 266 kts 323°
2026-04-28 18:15 53.12449 -1.67868 16402 ft 266 kts 323°
2026-04-28 18:16 53.13783 -1.70010 16397 ft 266 kts 323°
2026-04-28 18:16 53.15117 -1.72152 16405 ft 266 kts 323°
2026-04-28 18:16 53.16450 -1.74293 16405 ft 266 kts 323°
2026-04-28 18:16 53.17783 -1.76435 16405 ft 267 kts 323°
2026-04-28 18:17 53.19118 -1.78584 16403 ft 267 kts 323°
2026-04-28 18:17 53.20453 -1.80733 16405 ft 267 kts 323°
2026-04-28 18:17 53.21788 -1.82887 16403 ft 267 kts 323°
2026-04-28 18:17 53.23125 -1.85040 16399 ft 267 kts 323°
2026-04-28 18:18 53.24345 -1.87385 16390 ft 272 kts 307°
2026-04-28 18:18 53.25208 -1.90208 16405 ft 274 kts 300°
2026-04-28 18:18 53.25986 -1.93118 16398 ft 274 kts 300°
2026-04-28 18:18 53.26499 -1.95048 16407 ft 274 kts 300°
2026-04-28 18:19 53.27582 -1.98896 16406 ft 273 kts 302°
2026-04-28 18:19 53.28433 -2.01731 16405 ft 273 kts 303°
2026-04-28 18:19 53.29287 -2.04578 16407 ft 274 kts 302°
2026-04-28 18:19 53.30135 -2.07433 16409 ft 275 kts 303°
2026-04-28 18:20 53.30987 -2.10292 16395 ft 275 kts 303°
2026-04-28 18:20 53.31837 -2.13162 16398 ft 275 kts 303°
2026-04-28 18:20 53.32626 -2.15820 16400 ft 275 kts 303°
2026-04-28 18:20 53.33391 -2.18406 16402 ft 275 kts 303°
2026-04-28 18:21 53.34229 -2.21245 16398 ft 275 kts 303°
2026-04-28 18:21 53.35078 -2.24116 16398 ft 275 kts 303°
2026-04-28 18:21 53.35915 -2.27001 16399 ft 277 kts 300°
2026-04-28 18:21 53.36591 -2.30084 16396 ft 280 kts 293°
2026-04-28 18:22 53.37136 -2.33164 16395 ft 280 kts 291°
2026-04-28 18:22 53.37671 -2.36296 16397 ft 280 kts 291°
2026-04-28 18:22 53.38224 -2.39421 16406 ft 279 kts 293°
2026-04-28 18:22 53.38809 -2.42518 16407 ft 279 kts 294°
2026-04-28 18:23 53.39400 -2.45617 16407 ft 279 kts 293°
2026-04-28 18:23 53.39987 -2.48720 16400 ft 279 kts 293°
2026-04-28 18:23 53.40577 -2.51823 16399 ft 280 kts 293°
2026-04-28 18:23 53.41163 -2.54930 16405 ft 280 kts 293°
2026-04-28 18:24 53.41751 -2.58040 16400 ft 280 kts 294°
2026-04-28 18:24 53.42147 -2.60135 16400 ft 280 kts 294°
2026-04-28 18:24 53.42928 -2.64259 16412 ft 280 kts 294°
2026-04-28 18:24 53.43514 -2.67388 16407 ft 281 kts 294°
2026-04-28 18:25 53.44100 -2.70509 16411 ft 281 kts 294°
2026-04-28 18:25 53.44684 -2.73634 16418 ft 281 kts 294°
2026-04-28 18:25 53.45270 -2.76762 16412 ft 281 kts 294°
2026-04-28 18:26 53.46439 -2.83036 16407 ft 282 kts 294°
2026-04-28 18:26 53.47022 -2.86174 16410 ft 282 kts 294°
2026-04-28 18:26 53.47605 -2.89318 16406 ft 282 kts 294°
2026-04-28 18:26 53.48188 -2.92451 16411 ft 282 kts 294°
2026-04-28 18:27 53.48769 -2.95593 16407 ft 282 kts 293°
2026-04-28 18:27 53.49348 -2.98739 16410 ft 282 kts 294°
2026-04-28 18:27 53.49828 -3.01338 16409 ft 282 kts 293°
2026-04-28 18:27 53.50406 -3.04482 16409 ft 282 kts 294°
2026-04-28 18:28 53.50984 -3.07624 16410 ft 282 kts 294°
2026-04-28 18:28 53.51582 -3.10748 16399 ft 280 kts 296°
2026-04-28 18:28 53.52277 -3.13794 16405 ft 277 kts 298°
2026-04-28 18:28 53.53191 -3.16556 16413 ft 267 kts 313°
2026-04-28 18:29 53.54283 -3.19077 16413 ft 267 kts 314°
2026-04-28 18:29 53.55354 -3.21648 16409 ft 269 kts 311°
2026-04-28 18:29 53.56354 -3.24322 16412 ft 270 kts 309°
2026-04-28 18:29 53.57341 -3.27012 16410 ft 270 kts 309°
2026-04-28 18:30 53.58332 -3.29705 16410 ft 270 kts 309°
2026-04-28 18:30 53.58653 -3.30579 16410 ft 270 kts 309°
2026-04-28 18:30 53.60314 -3.35090 16418 ft 271 kts 309°
2026-04-28 18:30 53.61304 -3.37784 16418 ft 271 kts 309°
2026-04-28 18:31 53.62284 -3.40448 16413 ft 271 kts 309°
2026-04-28 18:31 53.63276 -3.43144 16413 ft 271 kts 309°
2026-04-28 18:31 53.64256 -3.45859 16415 ft 272 kts 308°
2026-04-28 18:31 53.65145 -3.48694 16415 ft 274 kts 303°
2026-04-28 18:32 53.65993 -3.51564 16417 ft 273 kts 304°
2026-04-28 18:32 53.66894 -3.54381 16419 ft 272 kts 307°
2026-04-28 18:32 53.67849 -3.57127 16418 ft 271 kts 309°
2026-04-28 18:32 53.68825 -3.59852 16411 ft 271 kts 308°
2026-04-28 18:33 53.69796 -3.62580 16410 ft 271 kts 309°
2026-04-28 18:33 53.70769 -3.65297 16410 ft 271 kts 309°
2026-04-28 18:33 53.71736 -3.68026 16414 ft 270 kts 308°
2026-04-28 18:33 53.72696 -3.70754 16419 ft 270 kts 308°
2026-04-28 18:34 53.73653 -3.73491 16371 ft 273 kts 308°
2026-04-28 18:34 53.74637 -3.76292 16134 ft 281 kts 308°
2026-04-28 18:34 53.75660 -3.79171 15800 ft 291 kts 308°
2026-04-28 18:34 53.76712 -3.82166 15430 ft 300 kts 307°
2026-04-28 18:35 53.77801 -3.85222 15058 ft 307 kts 307°
2026-04-28 18:35 53.78918 -3.88321 14705 ft 311 kts 307°
2026-04-28 18:35 53.80059 -3.91471 14349 ft 317 kts 307°
2026-04-28 18:35 53.81226 -3.94656 14017 ft 317 kts 307°
2026-04-28 18:36 53.82383 -3.97791 13638 ft 312 kts 307°
2026-04-28 18:36 53.83329 -4.00355 13301 ft 308 kts 307°
2026-04-28 18:36 53.84451 -4.03429 12912 ft 305 kts 306°
2026-04-28 18:36 53.85531 -4.06501 12528 ft 302 kts 306°
2026-04-28 18:37 53.86593 -4.09560 12147 ft 300 kts 305°
2026-04-28 18:37 53.87644 -4.12600 11762 ft 298 kts 305°
2026-04-28 18:37 53.88691 -4.15620 11389 ft 295 kts 305°
2026-04-28 18:37 53.89723 -4.18587 11019 ft 290 kts 305°
2026-04-28 18:38 53.90736 -4.21499 10759 ft 285 kts 305°
2026-04-28 18:38 53.91695 -4.24440 10517 ft 285 kts 300°
2026-04-28 18:38 53.92509 -4.27509 10259 ft 286 kts 297°
2026-04-28 18:38 53.93294 -4.30608 9990 ft 286 kts 296°
2026-04-28 18:39 53.94069 -4.33715 9721 ft 286 kts 296°
2026-04-28 18:39 53.94840 -4.36826 9458 ft 286 kts 296°
2026-04-28 18:39 53.95612 -4.39932 9198 ft 285 kts 296°
2026-04-28 18:39 53.96382 -4.43032 8937 ft 285 kts 296°
2026-04-28 18:40 53.97029 -4.46214 8575 ft 287 kts 283°
2026-04-28 18:40 53.97353 -4.49573 8217 ft 290 kts 280°
2026-04-28 18:40 53.97635 -4.52975 7859 ft 292 kts 279°
2026-04-28 18:40 53.97907 -4.56386 7489 ft 291 kts 279°
2026-04-28 18:41 53.98172 -4.59776 7124 ft 289 kts 279°
2026-04-28 18:41 53.98435 -4.63158 6749 ft 288 kts 279°
2026-04-28 18:41 53.98695 -4.66478 6365 ft 286 kts 279°
2026-04-28 18:41 53.98959 -4.69835 6130 ft 280 kts 279°
2026-04-28 18:42 53.99218 -4.73083 5887 ft 275 kts 279°
2026-04-28 18:42 53.99469 -4.76249 5642 ft 272 kts 279°
2026-04-28 18:42 53.99720 -4.79427 5337 ft 272 kts 279°
2026-04-28 18:42 53.99984 -4.82612 4946 ft 270 kts 282°
2026-04-28 18:43 54.00577 -4.85007 4621 ft 265 kts 308°
2026-04-28 18:43 54.01987 -4.86904 4236 ft 258 kts 341°
2026-04-28 18:43 54.03724 -4.87224 3855 ft 250 kts 13°
2026-04-28 18:43 54.05211 -4.85920 3479 ft 239 kts 46°
2026-04-28 18:44 54.05966 -4.83527 3084 ft 220 kts 75°
2026-04-28 18:44 54.06361 -4.78945 2321 ft 178 kts 84°
2026-04-28 18:44 54.06486 -4.76975 2125 ft 154 kts 80°
2026-04-28 18:45 54.06665 -4.75256 1849 ft 144 kts 78°
2026-04-28 18:45 54.06843 -4.73622 1504 ft 139 kts 77°
2026-04-28 18:45 54.07062 -4.72031 1143 ft 138 kts 73°
2026-04-28 18:45 54.07298 -4.70482 949 ft 128 kts 74°
2026-04-28 18:46 54.07503 -4.69034 761 ft 128 kts 75°
2026-04-28 18:46 54.07704 -4.67545 543 ft 126 kts 76°
2026-04-28 18:46 54.07880 -4.66085 394 ft 127 kts 76°
2026-04-28 18:46 54.08052 -4.64671 192 ft 119 kts 75°
2026-04-28 18:47 54.08210 -4.63335 45 ft 111 kts 76°
2026-04-28 18:47 54.08341 -4.62283 30 ft 48 kts 78°
2026-04-28 18:47 54.08393 -4.61863 30 ft 29 kts 76°
2026-04-28 18:47 54.08424 -4.61625 31 ft 16 kts 78°
2026-04-28 18:48 54.08449 -4.61460 30 ft 12 kts 58°
2026-04-28 18:48 54.08507 -4.61440 30 ft 8 kts 324°
2026-04-28 18:48 54.08533 -4.61528 30 ft 11 kts 278°
2026-04-28 18:48 54.08543 -4.61680 31 ft 15 kts 275°
2026-04-28 18:49 54.08552 -4.61855 31 ft 15 kts 276°
2026-04-28 18:49 54.08555 -4.61916 31 ft 15 kts 274°
2026-04-28 18:49 54.08510 -4.62211 32 ft 14 kts 259°
2026-04-28 18:49 54.08492 -4.62369 32 ft 14 kts 258°
2026-04-28 18:50 54.08470 -4.62542 31 ft 16 kts 257°
2026-04-28 18:50 54.08449 -4.62717 32 ft 13 kts 259°
2026-04-28 18:50 54.08425 -4.62900 31 ft 18 kts 258°
2026-04-28 18:50 54.08400 -4.63113 31 ft 18 kts 257°
2026-04-28 18:51 54.08437 -4.63302 30 ft 16 kts 297°
2026-04-28 18:51 54.08501 -4.63339 30 ft 0 kts 33°
2026-04-28 18:51 54.08512 -4.63336 30 ft 3 kts
2026-04-28 18:51 54.08532 -4.63353 30 ft 4 kts 320°
2026-04-28 18:52 54.08564 -4.63364 30 ft 4 kts 25°
2026-04-28 18:52 54.08584 -4.63331 30 ft 5 kts 46°
2026-04-28 18:52 54.08588 -4.63324 30 ft 0 kts 46°
2026-04-28 18:53 54.08588 -4.63323 30 ft 0 kts 47°